User: anonymous   Login
Location: Deer Lake
(49.1830°N, 57.4330°W)
Time: 10:22:12
(UTC-02:-30)
Language:

Cosmos 1707 - Orbit

View from above orbital plane
View from above orbital plane
View from above satellite
View from above satellite

Ground track
Ground track

The orbit data is extracted from the following two-line orbital elements,

1 16326U 85113A   14302.89726746  .00006206  00000-0  38858-3 0   489
2 16326 082.5161 070.5998 0010450 028.4511 331.7286 15.09173404572099
Epoch (UTC): 29 October 2014 21:32:03
Eccentricity: 0.0010450
inclination: 82.5161°
perigee height: 531 km
apogee height: 546 km
right ascension of ascending node: 70.5998°
argument of perigee: 28.4511°
revolutions per day: 15.09173404
mean anomaly at epoch: 331.7286°
orbit number at epoch: 57209

The dashed part of the orbit path shows where the satellite is in the earth's shadow,  

DLR